Regional Weather Roundup
Issued by NWS Newport/Morehead, NC

Current Version | Previous Version | Text Only | Print | Product List | Glossary On
Versions: 1 2 3 4 5 6 7 8 9 10 11 12 13 14 15 16 17 18 19 20 21 22 23 24 25 26 27 28 29 30 31 32 33 34 35 36 37 38 39 40 41 42 43 44 45 46 47 48 49 50
071
ASUS42 KMHX 240925
RWRMHX
WEATHER ROUNDUP FOR EASTERN NORTH CAROLINA
NATIONAL WEATHER SERVICE NEWPORT/MOREHEAD CITY NC
500 AM EDT SUN JUL 24 2016

NOTE: "FAIR" INDICATES FEW OR NO CLOUDS BELOW 12,000 FEET
WITH NO SIGNIFICANT WEATHER AND/OR OBSTRUCTIONS TO VISIBILITY

NCZ015>017-031-032-045>047-102-103-241000-
NORTH COAST

CITY           SKY/WX    TMP DP  RH WIND       PRES   REMARKS
EDENTON        CLOUDY    79  75  87 SW10      30.00R
ELIZABETH CITY CLEAR     78  74  87 S9        29.98S
KITTY HAWK     MOSUNNY   79  74  85 SW6       29.98S
MANTEO           N/A     78  78  97 W10       29.99F

$$

NCZ045>047-081-094-103-104-241000-
CENTRAL COAST

CITY           SKY/WX    TMP DP  RH WIND       PRES   REMARKS
FRISCO         CLEAR     80  77  90 W6        30.01F

$$

NCZ095-097-098-100-101-241000-
SOUTHERN COAST

CITY           SKY/WX    TMP DP  RH WIND       PRES   REMARKS
BEAUFORT       PTCLDY    82  76  81 SW8       30.01S
CEDAR ISLAND   NOT AVBL
JACKSONVILLE   PTCLDY    77  74  90 CALM      30.00F
PINEY ISLAND   NOT AVBL
WILMINGTON     CLEAR     79  76  90 CALM      30.01S


$$

NCZ011>013-027>030-043-044-078>080-089-090>093-098-241000-
COASTAL PLAIN

CITY           SKY/WX    TMP DP  RH WIND       PRES   REMARKS
AHOSKIE        PTCLDY    74  73  96 CALM      29.98S
CLINTON        PTCLDY    72  72 100 CALM      30.01S
ELIZABETHTOWN  CLEAR     75  75 100 CALM      30.00S
GOLDSBORO      CLEAR     74  74 100 CALM      29.99S
GREENVILLE     PTCLDY    73  72  94 S5        30.02R
HAVELOCK       CLEAR     76  74  93 CALM      30.01F
KENANSVILLE    NOT AVBL
KINSTON        CLEAR     73  71  95 CALM      30.01S
NEW BERN       CLEAR     76  74  93 SW5       30.02F
RICHLANDS      PTCLDY    74  73  97 S3        30.01F
ROCKY MOUNT    CLEAR     74  72  93 S5        29.99F
WASHINGTON     CLOUDY    75  71  88 SW7       30.01R
WHITEVILLE     CLEAR     76  74  94 CALM      30.00S

$$

AMZ130-135-150-152-154-156-158-170-250-252-270-ANZ085-086-088-633-658-670-241000-
MARINE OBSERVATIONS

STATION/POSITION TIME  TEMP    WIND        PRES    WAVE   SWELL
                       AIR SEA DIR/SP/G            HT/PER HT/PER
                 (UTC) (F)     (DEG/KT/KT) (MB)    (FT/S) (FT/S)
CHESAPEAKE LIGHT NOT AVBL
64 E VA BEACH    0850   81 81  230/ 16/ 17 1014.4    3/ 8   2/ 8
DUCK             0900   81 61  230/ 14/ 16 1014.7
2 E DUCK         0811      69                N/A     1/ 9
OREGON INLET     0900   81 85  220/ 13/ 16 1015.4
13E OREGON INLT  0900      82                N/A     2/ 9   2/ 9
HATTERAS CG      0900   80 83  230/  5/  8 1015.8
DIAMOND BUOY     0850   83 85  240/ 14/ 17 1016.1    3/ 4   2/ 9
CAPE LOOKOUT     0900   83     230/  7/  9 1015.8
BEAUFORT LAB     0900   83 83  230/  3/  9 1015.4
30 SE NEW RVR IN 0908   84 85  230/ 12/ 16 1016.1
30 SE NEW RVR IN 0825      85                N/A     3/ 8
27 SE WRIGHTSVLE 0908   84 84  230/  8/ 12 1016.5
5 SE WRIGHTSVLE  0808   83 83  240/  8/ 10 1017.1
225 S CAPE HAT   0850   82 84   CALM  /  2 1017.2    2/ 9   2/ 9
41 SE CHARLESTON 0850   85 86  240/ 12/ 14 1015.7    3/ 8   2/ 8

$$




USA.gov is the U.S. government's official web portal to all federal, state and local government web resources and services.